Lid_Strength_Index
18 18 17 18 18 18 17 17 15 14 14 13 12 11 10 9 9 8 8 7 8 8
19 19 19 19 19 19 18 16 16 14 14 13 12 11 11 9 9 8 8 7 8 8
20 19 19 19 20 19 18 17 16 15 14 13 12 12 10 10 9 8 8 7 8 8
20 20 20 20 20 20 18 17 16 15 14 14 13 12 11 10 9 9 8 8 8 8
20 21 21 21 21 20 19 18 16 15 14 14 13 12 11 10 9 9 9 8 9 9
22 22 22 23 22 21 20 19 17 16 16 15 14 12 10 10 10 9 9 9 9 10
23 23 23 24 25 24 22 20 19 18 17 15 14 11 10 11 10 10 9 9 9 10
24 25 27 28 29 27 24 22 22 19 18 16 13 10 10 11 11 11 10 10 10 11
30 29 30 31 30 29 26 25 23 21 19 17 14 9 9 10 12 11 12 12 11 11
34 32 32 31 31 28 27 25 23 22 19 18 16 9 9 11 12 12 12 12 12 12
32 32 31 31 30 29 27 26 22 21 20 18 16 10 10 11 12 12 12 13 13 13
30 30 31 29 30 28 25 22 22 20 20 19 18 12 10 11 13 13 13 13 13 13
29 27 30 30 29 27 25 21 18 18 19 19 18 13 10 11 13 14 14 14 14 12
27 26 26 25 24 23 23 22 24 20 19 19 18 17 11 11 14 14 15 16 16 15